H1 CPF 2 NER 2021 8 17 9 229 01 glonass139 H2 1808601 9139 43687 2021 8 17 0 0 0 2021 8 20 23 45 0 900 1 1 0 0 0 1 H9 10 0 59443 0.00000 0 3037146.902 18479229.453 17343804.843 10 0 59443 900.00000 0 2610211.594 20430362.007 15072116.692 10 0 59443 1800.00000 0 2382823.962 22115694.118 12508153.661 10 0 59443 2700.00000 0 2320205.591 23485640.677 9701542.496 10 0 59443 3600.00000 0 2379217.738 24500475.165 6706653.961 10 0 59443 4500.00000 0 2510410.560 25131905.959 3581557.443 10 0 59443 5400.00000 0 2660346.192 25364194.665 386899.905 10 0 59443 6300.00000 0 2774097.633 25194768.470 -2815269.486 10 0 59443 7200.00000 0 2797817.452 24634299.730 -5962706.156 10 0 59443 8100.00000 0 2681266.914 23706248.328 -8994184.554 10 0 59443 9000.00000 0 2380197.313 22445885.013 -11850696.016 10 0 59443 9900.00000 0 1858481.306 20898835.992 -14476605.810 10 0 59443 10800.00000 0 1089902.296 19119209.436 -16820745.961 10 0 59443 11700.00000 0 59524.288 17167382.385 -18837421.656 10 0 59443 12600.00000 0 -1235417.598 15107541.110 -20487310.727 10 0 59443 13500.00000 0 -2785145.462 13005078.428 -21738238.002 10 0 59443 14400.00000 0 -4567503.275 10923957.487 -22565808.899 10 0 59443 15300.00000 0 -6548652.437 8924153.014 -22953889.522 10 0 59443 16200.00000 0 -8684270.288 7059277.460 -22894923.710 10 0 59443 17100.00000 0 -10921202.280 5374491.590 -22390080.770 10 0 59443 18000.00000 0 -13199499.093 3904786.852 -21449231.032 10 0 59443 18900.00000 0 -15454753.714 2673710.969 -20090749.831 10 0 59443 19800.00000 0 -17620640.728 1692589.221 -18341153.902 10 0 59443 20700.00000 0 -19631551.324 960272.925 -16234577.589 10 0 59443 21600.00000 0 -21425213.557 463424.062 -13812099.458 10 0 59443 22500.00000 0 -22945187.934 177322.253 -11120932.901 10 0 59443 23400.00000 0 -24143133.661 67158.193 -8213497.187 10 0 59443 24300.00000 0 -24980750.699 89756.949 -5146387.777 10 0 59443 25200.00000 0 -25431316.592 195656.458 -1979266.745 10 0 59443 26100.00000 0 -25480754.233 331451.653 1226304.210 10 0 59443 27000.00000 0 -25128186.765 442303.647 4408064.689 10 0 59443 27900.00000 0 -24385957.502 474506.737 7504266.535 10 0 59443 28800.00000 0 -23279115.321 378003.981 10454870.808 10 0 59443 29700.00000 0 -21844388.408 108744.680 13202707.517 10 0 59443 30600.00000 0 -20128690.433 -369215.810 15694575.960 10 0 59443 31500.00000 0 -18187222.535 -1081962.263 17882264.904 10 0 59443 32400.00000 0 -16081250.850 -2044385.339 19723473.906 10 0 59443 33300.00000 0 -13875652.268 -3259322.772 21182619.169 10 0 59443 34200.00000 0 -11636330.252 -4717211.942 22231509.643 10 0 59443 35100.00000 0 -9427607.288 -6396268.676 22849881.696 10 0 59443 36000.00000 0 -7309701.086 -8263185.460 23025783.189 10 0 59443 36900.00000 0 -5336387.901 -10274320.935 22755800.404 10 0 59443 37800.00000 0 -3552948.415 -12377332.506 22045123.982 10 0 59443 38700.00000 0 -1994479.912 -14513185.796 20907452.608 10 0 59443 39600.00000 0 -684643.618 -16618459.010 19364735.921 10 0 59443 40500.00000 0 365101.789 -18627848.130 17446760.798 10 0 59443 41400.00000 0 1155749.326 -20476770.245 15190587.815 10 0 59443 42300.00000 0 1700465.461 -22103957.726 12639847.479 10 0 59443 43200.00000 0 2023796.273 -23453935.906 9843908.411 10 0 59443 44100.00000 0 2160391.197 -24479281.132 6856932.245 10 0 59443 45000.00000 0 2153297.767 -25142564.493 3736832.477 10 0 59443 45900.00000 0 2051898.998 -25417899.227 544156.651 10 0 59443 46800.00000 0 1909580.382 -25292025.866 -2659086.864 10 0 59443 47700.00000 0 1781225.286 -24764888.266 -5810634.698 10 0 59443 48600.00000 0 1720645.193 -23849674.977 -8849183.128 10 0 59443 49500.00000 0 1778054.466 -22572322.819 -11715587.357 10 0 59443 50400.00000 0 1997697.718 -20970502.368 -14354021.143 10 0 59443 51300.00000 0 2415731.730 -19092127.053 -16713073.335 10 0 59443 52200.00000 0 3058453.225 -16993447.822 -18746759.028 10 0 59443 53100.00000 0 3940949.205 -14736813.096 -20415424.726 10 0 59443 54000.00000 0 5066228.649 -12388187.867 -21686529.217 10 0 59443 54900.00000 0 6424873.924 -10014536.024 -22535284.385 10 0 59443 55800.00000 0 7995228.075 -7681175.825 -22945143.063 10 0 59443 56700.00000 0 9744111.415 -5449219.337 -22908124.232 10 0 59443 57600.00000 0 11628038.276 -3373203.037 -22424969.141 10 0 59443 58500.00000 0 13594883.469 -1499008.592 -21505125.279 10 0 59443 59400.00000 0 15585928.871 137839.669 -20166558.685 10 0 59443 60300.00000 0 17538204.419 1513430.155 -18435398.366 10 0 59443 61200.00000 0 19387025.109 2616220.766 -16345420.099 10 0 59443 62100.00000 0 21068617.345 3447266.832 -13937380.037 10 0 59443 63000.00000 0 22522724.147 4019912.476 -11258211.582 10 0 59443 63900.00000 0 23695079.528 4358960.357 -8360101.865 10 0 59443 64800.00000 0 24539648.068 4499356.960 -5299466.534 10 0 59443 65700.00000 0 25020535.695 4484450.990 -2135843.595 10 0 59443 66600.00000 0 25113491.701 4363900.382 1069271.239 10 0 59443 67500.00000 0 24806939.560 4191318.117 4253624.324 10 0 59443 68400.00000 0 24102494.034 4021757.781 7355415.036 10 0 59443 69300.00000 0 23014943.891 3909146.110 10314493.933 10 0 59443 70200.00000 0 21571701.985 3903771.628 13073524.807 10 0 59443 71100.00000 0 19811746.671 4049935.589 15579088.422 10 0 59443 72000.00000 0 17784099.617 4383864.166 17782707.078 10 0 59443 72900.00000 0 15545904.024 4931969.504 19641771.189 10 0 59443 73800.00000 0 13160183.364 5709532.383 21120351.167 10 0 59443 74700.00000 0 10693373.619 6719861.482 22189880.173 10 0 59443 75600.00000 0 8212730.722 7953964.409 22829695.969 10 0 59443 76500.00000 0 5783719.612 9390744.557 23027432.524 10 0 59443 77400.00000 0 3467491.807 10997716.162 22779254.755 10 0 59443 78300.00000 0 1318554.419 12732208.771 22089932.382 10 0 59443 79200.00000 0 -617274.378 14543012.303 20972751.558 10 0 59443 80100.00000 0 -2304540.065 16372395.658 19449265.587 10 0 59443 81000.00000 0 -3719388.394 18158416.440 17548888.768 10 0 59443 81900.00000 0 -4850313.523 19837427.093 15308340.037 10 0 59443 82800.00000 0 -5698387.013 21346674.157 12770945.840 10 0 59443 83700.00000 0 -6276958.514 22626883.083 9985814.321 10 0 59443 84600.00000 0 -6610840.748 23624720.991 7006895.404 10 0 59443 85500.00000 0 -6735012.821 24295034.167 3891943.953 10 0 59444 0.00000 0 -6692896.290 24602766.029 701405.303 10 0 59444 900.00000 0 -6534276.631 24524473.682 -2502756.051 10 0 59444 1800.00000 0 -6312957.586 24049379.065 -5658260.831 10 0 59444 2700.00000 0 -6084248.506 23179907.099 -8703730.034 10 0 59444 3600.00000 0 -5902390.958 21931688.579 -11579885.495 10 0 59444 4500.00000 0 -5818034.934 20333024.774 -14230712.050 10 0 59444 5400.00000 0 -5875872.524 18423835.526 -16604557.720 10 0 59444 6300.00000 0 -6112530.684 16254133.728 -18655149.603 10 0 59444 7200.00000 0 -6554813.782 13882089.578 -20342504.712 10 0 59444 8100.00000 0 -7218371.760 11371765.280 -21633717.362 10 0 59444 9000.00000 0 -8106851.744 8790614.871 -22503607.193 10 0 59444 9900.00000 0 -9211570.182 6206853.880 -22935214.765 10 0 59444 10800.00000 0 -10511720.563 3686808.843 -22920134.874 10 0 59444 11700.00000 0 -11975108.866 1292357.458 -22458681.002 10 0 59444 12600.00000 0 -13559386.391 -921433.667 -21559877.688 10 0 59444 13500.00000 0 -15213728.484 -2908375.371 -20241281.113 10 0 59444 14400.00000 0 -16880888.671 -4632840.641 -18528631.550 10 0 59444 15300.00000 0 -18499541.654 -6070998.133 -16455344.776 10 0 59444 16200.00000 0 -20006816.359 -7211544.224 -14061852.724 10 0 59444 17100.00000 0 -21340912.165 -8055904.613 -11394806.701 10 0 59444 18000.00000 0 -22443687.773 -8617898.906 -8506159.356 10 0 59444 18900.00000 0 -23263113.555 -8922884.499 -5452144.011 10 0 59444 19800.00000 0 -23755483.955 -9006418.038 -2292171.981 10 0 59444 20700.00000 0 -23887296.925 -8912493.024 912329.725 10 0 59444 21600.00000 0 -23636721.585 -8691429.991 4099116.985 10 0 59444 22500.00000 0 -22994592.906 -8397509.993 7206339.513 10 0 59444 23400.00000 0 -21964892.318 -8086452.681 10173740.169 10 0 59444 24300.00000 0 -20564694.835 -7812846.271 12943819.299 10 0 59444 25200.00000 0 -18823585.654 -7627638.339 15462941.797 10 0 59444 26100.00000 0 -16782571.297 -7575793.170 17682365.988 10 0 59444 27000.00000 0 -14492531.120 -7694214.047 19559175.401 10 0 59444 27900.00000 0 -12012273.748 -8010017.372 21057096.608 10 0 59444 28800.00000 0 -9406278.980 -8539230.524 22147188.609 10 0 59444 29700.00000 0 -6742218.208 -9285967.687 22808391.805 10 0 59444 30600.00000 0 -4088354.991 -10242117.992 23027927.172 10 0 59444 31500.00000 0 -1510932.168 -11387559.191 22801538.794 10 0 59444 32400.00000 0 928347.928 -12690888.545 22133575.689 10 0 59444 33300.00000 0 3174647.530 -14110641.391 21036911.370 10 0 59444 34200.00000 0 5182026.961 -15596947.758 19532702.404 10 0 59444 35100.00000 0 6915104.764 -17093559.369 17649989.793 10 0 59444 36000.00000 0 8350276.613 -18540163.879 15425149.783 10 0 59444 36900.00000 0 9476443.005 -19874890.961 12901203.363 10 0 59444 37800.00000 0 10295215.921 -21036906.466 10126996.432 10 0 59444 38700.00000 0 10820595.981 -21968986.721 7156265.093 10 0 59444 39600.00000 0 11078133.550 -22619965.085 4046603.121 10 0 59444 40500.00000 0 11103608.905 -22946947.735 858350.777 10 0 59444 41400.00000 0 10941286.859 -22917204.672 -2346573.993 10 0 59444 42300.00000 0 10641819.394 -22509655.072 -5505879.211 10 0 59444 43200.00000 0 10259885.021 -21715882.896 -8558113.758 10 0 59444 44100.00000 0 9851665.104 -20540638.176 -11443869.283 10 0 59444 45000.00000 0 9472264.580 -19001801.112 -14106944.818 10 0 59444 45900.00000 0 9173187.191 -17129808.770 -16495450.572 10 0 59444 46800.00000 0 8999973.223 -14966566.982 -18562828.459 10 0 59444 47700.00000 0 8990100.974 -12563891.996 -20268768.546 10 0 59444 48600.00000 0 9171242.004 -9981546.373 -21580002.872 10 0 59444 49500.00000 0 9559945.198 -7284950.786 -22470960.609 10 0 59444 50400.00000 0 10160806.336 -4542667.276 -22924271.359 10 0 59444 51300.00000 0 10966159.207 -1823758.996 -22931106.574 10 0 59444 52200.00000 0 11956302.042 804863.365 -22491352.332 10 0 59444 53100.00000 0 13100250.179 3280997.655 -21613610.130 10 0 59444 54000.00000 0 14356983.494 5549502.426 -20315025.771 10 0 59444 54900.00000 0 15677136.035 7564347.405 -18620949.863 10 0 59444 55800.00000 0 17005056.416 9290277.294 -16564436.861 10 0 59444 56700.00000 0 18281151.765 10704020.445 -14185592.766 10 0 59444 57600.00000 0 19444415.974 11794993.258 -11530784.696 10 0 59444 58500.00000 0 20435035.072 12565472.482 -8651728.370 10 0 59444 59400.00000 0 21196959.474 13030230.278 -5604472.009 10 0 59444 60300.00000 0 21680334.213 13215649.575 -2448297.218 10 0 59444 61200.00000 0 21843684.555 13158359.180 755440.882 10 0 59444 62100.00000 0 21655764.885 12903448.325 3944510.928 10 0 59444 63000.00000 0 21096993.229 12502337.873 7057016.162 10 0 59444 63900.00000 0 20160411.483 12010399.498 10032594.793 10 0 59444 64800.00000 0 18852131.498 11484424.454 12813586.547 10 0 59444 65700.00000 0 17191248.856 10980049.273 15346143.027 10 0 59444 66600.00000 0 15209228.414 10549247.051 17581260.890 10 0 59444 67500.00000 0 12948787.542 10237989.691 19475718.807 10 0 59444 68400.00000 0 10462323.608 10084178.852 20992901.270 10 0 59444 69300.00000 0 7809950.786 10115931.779 22103494.593 10 0 59444 70200.00000 0 5057227.035 10350293.188 22786043.013 10 0 59444 71100.00000 0 2272664.309 10792426.605 23027355.380 10 0 59444 72000.00000 0 -474876.134 11435318.698 22822755.481 10 0 59444 72900.00000 0 -3118797.189 12260009.063 22176171.754 10 0 59444 73800.00000 0 -5597281.700 13236336.315 21100064.796 10 0 59444 74700.00000 0 -7855608.001 14324170.176 19615193.697 10 0 59444 75600.00000 0 -9848170.818 15475079.166 17750225.009 10 0 59444 76500.00000 0 -11540124.944 16634365.495 15541190.722 10 0 59444 77400.00000 0 -12908584.170 17743383.210 13030804.465 10 0 59444 78300.00000 0 -13943326.188 18742043.644 10267647.701 10 0 59444 79200.00000 0 -14646974.234 19571403.839 7305240.301 10 0 59444 80100.00000 0 -15034647.845 20176229.597 4201012.384 10 0 59444 81000.00000 0 -15133097.175 20507425.246 1015196.507 10 0 59444 81900.00000 0 -14979357.061 20524227.175 -2190338.839 10 0 59444 82800.00000 0 -14618977.282 20196067.577 -5353291.747 10 0 59444 83700.00000 0 -14103903.664 19504028.318 -8412141.825 10 0 59444 84600.00000 0 -13490099.708 18441821.813 -11307353.324 10 0 59444 85500.00000 0 -12835009.693 17016255.627 -13982542.169 10 0 59445 0.00000 0 -12194971.216 15247159.376 -16385583.237 10 0 59445 900.00000 0 -11622687.753 13166774.729 -18469635.650 10 0 59445 1800.00000 0 -11164868.238 10818633.736 -20194064.551 10 0 59445 2700.00000 0 -10860136.189 8255969.627 -21525241.465 10 0 59445 3600.00000 0 -10737295.882 5539727.201 -22437206.578 10 0 59445 4500.00000 0 -10814031.080 2736254.659 -22912179.694 10 0 59445 5400.00000 0 -11096091.354 -85226.676 -22940909.735 10 0 59445 6300.00000 0 -11577001.050 -2855269.423 -22522855.827 10 0 59445 7200.00000 0 -12238303.398 -5506853.496 -21666196.475 10 0 59445 8100.00000 0 -13050329.498 -7977935.207 -20387666.735 10 0 59445 9000.00000 0 -13973459.534 -10213786.079 -18712226.765 10 0 59445 9900.00000 0 -14959822.590 -12169024.100 -16672568.511 10 0 59445 10800.00000 0 -15955362.755 -13809253.450 -14308470.503 10 0 59445 11700.00000 0 -16902183.671 -15112245.209 -11666013.829 10 0 59445 12600.00000 0 -17741071.758 -16068611.063 -8796675.200 10 0 59445 13500.00000 0 -18414090.931 -16681943.553 -5756315.484 10 0 59445 14400.00000 0 -18867138.621 -16968419.025 -2604084.180 10 0 59445 15300.00000 0 -19052354.749 -16955882.093 598737.980 10 0 59445 16200.00000 0 -18930281.734 -16682452.334 3789934.991 10 0 59445 17100.00000 0 -18471684.423 -16194713.917 6907566.293 10 0 59445 18000.00000 0 -17658953.414 -15545566.179 9891168.182 10 0 59445 18900.00000 0 -16487033.043 -14791827.079 12682922.513 10 0 59445 19800.00000 0 -14963835.378 -13991691.366 15228770.315 10 0 59445 20700.00000 0 -13110123.236 -13202150.831 17479449.180 10 0 59445 21600.00000 0 -10958867.235 -12476485.067 19391435.353 10 0 59445 22500.00000 0 -8554103.627 -11861927.621 20927773.434 10 0 59445 23400.00000 0 -5949340.150 -11397604.725 22058778.948 10 0 59445 24300.00000 0 -3205575.376 -11112832.048 22762601.549 10 0 59445 25200.00000 0 -389012.608 -11025839.895 23025639.212 10 0 59445 26100.00000 0 2431438.266 -11142979.459 22842796.342 10 0 59445 27000.00000 0 5186769.204 -11458442.882 22217581.410 10 0 59445 27900.00000 0 7810486.549 -11954508.754 21162042.380 10 0 59445 28800.00000 0 10241121.176 -12602303.154 19696540.861 10 0 59445 29700.00000 0 12424533.883 -13363045.056 17849368.611 10 0 59445 30600.00000 0 14315921.774 -14189724.964 15656212.672 10 0 59445 31500.00000 0 15881443.196 -15029147.500 13159478.223 10 0 59445 32400.00000 0 17099394.287 -15824253.334 10407480.774 10 0 59445 33300.00000 0 17960888.329 -16516623.790 7453521.996 10 0 59445 34200.00000 0 18470009.412 -17049063.298 4354865.952 10 0 59445 35100.00000 0 18643433.771 -17368151.065 1171634.703 10 0 59445 36000.00000 0 18509534.309 -17426653.959 -2034355.821 10 0 59445 36900.00000 0 18107005.621 -17185697.925 -5200797.103 10 0 59445 37800.00000 0 17483067.195 -16616604.901 -8266102.886 10 0 59445 38700.00000 0 16691320.538 -15702315.947 -11170613.451 10 0 59445 39600.00000 0 15789350.888 -14438338.588 -13857764.956 10 0 59445 40500.00000 0 14836175.236 -12833176.330 -16275200.215 10 0 59445 41400.00000 0 13889645.121 -10908220.201 -18375798.363 10 0 59445 42300.00000 0 13003914.730 -8697105.037 -20118602.364 10 0 59445 43200.00000 0 12227082.087 -6244555.933 -21469625.584 10 0 59445 44100.00000 0 11599103.761 -3604771.915 -22402521.156 10 0 59445 45000.00000 0 11150071.835 -839413.628 -22899100.570 10 0 59445 45900.00000 0 10898926.362 1984721.463 -22949691.235 10 0 59445 46800.00000 0 10852657.929 4798239.649 -22553325.859 10 0 59445 47700.00000 0 11006034.014 7531801.384 -21717760.012 10 0 59445 48600.00000 0 11341860.448 10118771.108 -20459317.620 10 0 59445 49500.00000 0 11831766.505 12497756.084 -18802567.572 10 0 59445 50400.00000 0 12437479.818 14614928.496 -16779838.070 10 0 59445 51300.00000 0 13112536.434 16426034.346 -14430578.547 10 0 59445 52200.00000 0 13804352.893 17898006.015 -11800582.040 10 0 59445 53100.00000 0 14456571.743 19010112.023 -8941083.871 10 0 59445 54000.00000 0 15011580.446 19754597.324 -5907754.851 10 0 59445 54900.00000 0 15413096.317 20136789.021 -2759609.391 10 0 59445 55800.00000 0 15608707.548 20174664.966 442149.319 10 0 59445 56700.00000 0 15552262.466 19897905.461 3635323.886 10 0 59445 57600.00000 0 15206005.825 19346469.979 6757933.180 10 0 59445 58500.00000 0 14542371.991 18568760.581 9749414.696 10 0 59445 59400.00000 0 13545359.580 17619450.875 12551795.356 10 0 59445 60300.00000 0 12211429.872 16557072.912 15110808.306 10 0 59445 61200.00000 0 10549891.554 15441464.079 17376934.512 10 0 59445 62100.00000 0 8582755.750 14331181.326 19306349.944 10 0 59445 63000.00000 0 6344067.218 13280990.848 20861761.196 10 0 59445 63900.00000 0 3878739.320 12339537.677 22013114.583 10 0 59445 64800.00000 0 1240940.439 11547291.731 22738166.450 10 0 59445 65700.00000 0 -1507902.212 10934855.117 23022904.838 10 0 59445 66600.00000 0 -4301399.927 10521700.332 22861815.336 10 0 59445 67500.00000 0 -7070707.478 10315391.243 22257986.602 10 0 59445 68400.00000 0 -9747133.776 10311318.770 21223053.688 10 0 59445 69300.00000 0 -12264751.833 10492962.139 19776979.977 10 0 59445 70200.00000 0 -14562901.584 10832664.968 17947681.234 10 0 59445 71100.00000 0 -16588483.206 11292894.210 15770497.939 10 0 59445 72000.00000 0 -18297946.704 11827929.949 13287524.834 10 0 59445 72900.00000 0 -19658895.700 12385916.017 10546809.206 10 0 59445 73800.00000 0 -20651238.901 12911186.017 7601432.037 10 0 59445 74700.00000 0 -21267840.973 13346767.475 4508488.710 10 0 59445 75600.00000 0 -21514645.330 13636958.800 1327988.092 10 0 59445 76500.00000 0 -21410263.110 13729870.147 -1878309.194 10 0 59445 77400.00000 0 -20985045.069 13579820.180 -5048090.768 10 0 59445 78300.00000 0 -20279674.956 13149486.329 -8119707.272 10 0 59445 79200.00000 0 -19343343.321 12411716.088 -11033377.727 10 0 59445 80100.00000 0 -18231578.654 11350920.958 -13732361.149 10 0 59445 81000.00000 0 -17003827.537 9963992.111 -16164070.735 10 0 59445 81900.00000 0 -15720886.288 8260696.986 -18281107.985 10 0 59445 82800.00000 0 -14442293.041 6263538.097 -20042195.652 10 0 59445 83700.00000 0 -13223790.936 4007078.107 -21412990.624 10 0 59445 84600.00000 0 -12114970.035 1536757.871 -22366760.311 10 0 59445 85500.00000 0 -11157187.960 -1092744.167 -22884908.867 10 0 59446 0.00000 0 -10381857.221 -3819543.500 -22957342.784 10 0 59446 900.00000 0 -9809171.802 -6576887.862 -22582668.551 10 0 59446 1800.00000 0 -9447325.712 -9295704.506 -21768218.666 10 0 59446 2700.00000 0 -9292257.549 -11907250.623 -20529905.379 10 0 59446 3600.00000 0 -9327929.405 -14345756.440 -18891905.439 10 0 59446 4500.00000 0 -9527128.700 -16550950.384 -16886182.115 10 0 59446 5400.00000 0 -9852757.406 -18470361.345 -14551854.270 10 0 59446 6300.00000 0 -10259553.152 -20061302.215 -11934425.219 10 0 59446 7200.00000 0 -10696168.180 -21292452.381 -9084887.050 10 0 59446 8100.00000 0 -11107517.005 -22144974.012 -6058718.547 10 0 59446 9000.00000 0 -11437292.333 -22613116.702 -2914796.987 10 0 59446 9900.00000 0 -11630541.847 -22704286.675 285754.119 10 0 59446 10800.00000 0 -11636196.118 -22438579.512 3480758.192 10 0 59446 11700.00000 0 -11409440.269 -21847797.888 6608195.832 10 0 59446 12600.00000 0 -10913828.950 -20973997.395 9607408.119 10 0 59446 13500.00000 0 -10123055.373 -19867623.175 12420269.494 10 0 59446 14400.00000 0 -9022299.924 -18585316.868 14992307.703 10 0 59446 15300.00000 0 -7609101.853 -17187486.741 17273749.539 10 0 59446 16200.00000 0 -5893717.507 -15735743.235 19220473.068 10 0 59446 17100.00000 0 -3898950.004 -14290307.120 20794849.068 10 0 59446 18000.00000 0 -1659457.155 -12907498.128 21966456.644 10 0 59446 18900.00000 0 779434.190 -11637408.006 22712660.564 10 0 59446 19800.00000 0 3363359.138 -10521853.927 23019040.390 10 0 59446 20700.00000 0 6030924.581 -9592696.419 22879664.054 10 0 59446 21600.00000 0 8716016.156 -8870590.723 22297201.271 10 0 59446 22500.00000 0 11350308.510 -8364222.689 21282874.755 10 0 59446 23400.00000 0 13865876.564 -8070060.428 19856249.935 10 0 59446 24300.00000 0 16197801.286 -7972631.763 18044866.539 10 0 59446 25200.00000 0 18286663.381 -8045315.914 15883718.098 10 0 59446 26100.00000 0 20080822.376 -8251616.639 13414588.133 10 0 59446 27000.00000 0 21538387.090 -8546863.971 10685254.499 10 0 59446 27900.00000 0 22628795.678 -8880273.645 7748575.827 10 0 59446 28800.00000 0 23333939.135 -9197278.115 4661476.676 10 0 59446 29700.00000 0 23648780.858 -9442031.189 1483850.138 10 0 59446 30600.00000 0 23581445.647 -9559980.504 -1722601.429 10 0 59446 31500.00000 0 23152773.605 -9500398.738 -4895565.029 10 0 59446 32400.00000 0 22395356.972 -9218765.571 -7973331.599 10 0 59446 33300.00000 0 21352099.797 -8678898.334 -10896002.345 10 0 59446 34200.00000 0 20074360.704 -7854739.540 -13606662.530 10 0 59446 35100.00000 0 18619756.843 -6731723.758 -16052498.973 10 0 59446 36000.00000 0 17049721.676 -5307664.002 -18185838.571 10 0 59446 36900.00000 0 15426919.808 -3593118.121 -19965086.648 10 0 59446 37800.00000 0 13812628.229 -1611217.778 -21355546.091 10 0 59446 38700.00000 0 12264194.705 603034.657 -22330100.734 10 0 59446 39600.00000 0 10832680.775 3003973.204 -22869749.155 10 0 59446 40500.00000 0 9560788.836 5536929.942 -22963978.269 10 0 59446 41400.00000 0 8481160.534 8140282.556 -22610969.292 10 0 59446 42300.00000 0 7615117.909 10747802.536 -21817632.068 10 0 59446 43200.00000 0 6971899.682 13291206.186 -20599467.185 10 0 59446 44100.00000 0 6548424.020 15702801.963 -18980258.769 10 0 59446 45000.00000 0 6329586.652 17918123.453 -16991604.220 10 0 59446 45900.00000 0 6289080.431 19878438.050 -14672290.449 10 0 59446 46800.00000 0 6390700.247 21533026.556 -12067529.211 10 0 59446 47700.00000 0 6590076.617 22841138.675 -9228067.106 10 0 59446 48600.00000 0 6836763.124 23773543.141 -6209188.261 10 0 59446 49500.00000 0 7076587.938 24313608.499 -3069629.852 10 0 59446 50400.00000 0 7254168.673 24457870.384 129567.507 10 0 59446 51300.00000 0 7315483.111 24216063.009 3326251.424 10 0 59446 52200.00000 0 7210386.282 23610615.168 6458367.648 10 0 59446 53100.00000 0 6894967.035 22675633.551 9465164.205 10 0 59446 54000.00000 0 6333644.357 21455417.611 12288366.277 10 0 59446 54900.00000 0 5500915.001 20002569.565 14873299.216 10 0 59446 55800.00000 0 4382678.969 18375779.701 17169938.387 10 0 59446 56700.00000 0 2977087.244 16637380.212 19133866.406 10 0 59446 57600.00000 0 1294876.190 14850769.827 20727120.380 10 0 59446 58500.00000 0 -640825.567 13077816.391 21918914.006 10 0 59446 59400.00000 0 -2795210.244 11376344.840 22686221.913 10 0 59446 60300.00000 0 -5122995.209 9797814.063 23014216.233 10 0 59446 61200.00000 0 -7570069.522 8385278.066 22896547.864 10 0 59446 62100.00000 0 -10075515.852 7171714.908 22335467.736 10 0 59446 63000.00000 0 -12573925.607 6178791.659 21341785.889 10 0 59446 63900.00000 0 -14997912.929 5416115.834 19934668.959 10 0 59446 64800.00000 0 -17280725.030 4881003.709 18141279.301 10 0 59446 65700.00000 0 -19358842.078 4558774.817 15996261.682 10 0 59446 66600.00000 0 -21174459.716 4423560.278 13541086.197 10 0 59446 67500.00000 0 -22677751.784 4439591.260 10823258.714 10 0 59446 68400.00000 0 -23828819.300 4562913.902 7895412.731 10 0 59446 69300.00000 0 -24599244.176 4743458.959 4814299.062 10 0 59446 70200.00000 0 -24973182.234 4927379.269 1639692.028 10 0 59446 71100.00000 0 -24947948.930 5059556.433 -1566767.261 10 0 59446 72000.00000 0 -24534072.197 5086170.543 -4742768.147 10 0 59446 72900.00000 0 -23754809.211 4957223.555 -7826544.742 10 0 59446 73800.00000 0 -22645146.421 4628908.434 -10758083.229 10 0 59446 74700.00000 0 -21250324.175 4065722.372 -13480297.772 10 0 59446 75600.00000 0 -19623947.561 3242232.870 -15940151.277 10 0 59446 76500.00000 0 -17825762.703 2144420.059 -18089698.258 10 0 59446 77400.00000 0 -15919192.171 770536.527 -19887028.487 10 0 59446 78300.00000 0 -13968733.350 -868553.630 -21297092.349 10 0 59446 79200.00000 0 -12037329.494 -2749572.734 -22292391.150 10 0 59446 80100.00000 0 -10183824.282 -4837557.665 -22853518.486 10 0 59446 81000.00000 0 -8460607.019 -7087089.016 -22969541.839 10 0 59446 81900.00000 0 -6911547.394 -9443970.739 -22638216.845 10 0 59446 82800.00000 0 -5570306.346 -11847290.520 -21866030.022 10 0 59446 83700.00000 0 -4459093.403 -14231775.007 -20668069.262 10 0 59446 84600.00000 0 -3587921.827 -16530341.532 -19067724.745 10 0 59446 85500.00000 0 -2954391.741 -18676739.405 -17096226.445 99